#timestamp,LO_Frequency,Hit,StdDev 
1586372415.7,286047003.0,N
1586372435.5,286047001.3,N
1586372455.3,286047002.7,N
1586372475.2,286047002.0,N
1586372495.0,286047002.7,N
1586372495.9,286047002.7,Y
1586372515.8,286046998.5,P
1586372535.6,286047000.5,N
1586372555.4,286047000.6,N
1586372575.3,286047002.0,N
1586372595.1,286047002.6,N
1586372615.9,286047002.0,N
1586372635.7,286046999.9,N
1586372655.5,286047000.9,N
1586372675.4,286046998.2,N
1586372695.2,286047002.7,N
1586372715.0,286047011.9,Y
1586372715.9,286047001.9,P
1586372735.8,286047002.4,P
1586372755.6,286047001.9,P
1586372775.5,286047002.5,Y
1586372795.3,286046998.1,P
1586372815.1,286046998.6,N
1586372835.9,286046998.8,N
1586372855.7,286046997.3,N
1586372875.6,286046997.3,N
1586372895.4,286046995.4,Y
1586372915.2,286047000.7,P
1586372935.1,286047001.7,N
1586372936.0,286047001.7,N
1586372955.8,286047001.3,N
1586372975.7,286047000.0,N
1586372995.5,286047003.9,Y
1586373015.3,286047001.7,P
1586373035.2,286047003.8,P
1586373055.0,286047003.7,N
1586373055.9,286047003.7,N
1586373075.7,286047001.4,N
1586373095.6,286047001.3,N
1586373115.4,286047000.1,N
1586373135.3,286047004.4,Y
1586373155.1,286047001.4,P
1586373175.8,286047004.2,P
1586373195.7,286047003.6,N
1586373215.5,286047001.9,N
1586373235.4,286047002.8,N
1586373255.2,286047004.3,Y
1586373275.0,286047001.2,P
1586373275.9,286047001.2,N
1586373295.8,286046997.8,P
1586373315.6,286046995.1,N
1586373335.5,286046996.9,N
1586373355.3,286046997.0,N
1586373375.1,286046997.2,N
1586373395.9,286046998.0,N
1586373415.7,286046999.3,N
1586373435.6,286046998.2,N
1586373455.4,286046999.5,N
1586373475.2,286046998.3,N
1586373495.1,286047001.0,N
1586373496.0,286047001.0,N
1586373515.8,286047002.7,N
1586373535.7,286047000.2,N
1586373555.5,286046999.0,N
1586373575.3,286047000.2,N
1586373595.2,286046999.7,N
1586373615.0,286047000.1,N
1586373615.9,286047000.1,N
1586373635.7,286046999.9,N
1586373655.6,286047000.5,N
1586373675.4,286047002.2,N
1586373695.3,286047000.1,N
1586373715.1,286046998.5,N
1586373716.0,286046998.5,N
1586373735.8,286047001.6,N
1586373755.7,286047003.7,N
1586373775.5,286047000.5,N
1586373795.4,286046998.1,N
1586373815.2,286047002.4,N
1586373835.0,286046999.8,N
1586373835.9,286046999.8,N
1586373855.8,286047002.8,N
1586373875.6,286046998.3,N
1586373895.4,286047000.4,N
1586373915.3,286047001.0,N
1586373935.1,286046999.9,N
1586373955.9,286047002.4,N
1586373975.7,286047002.3,N
1586373995.6,286047000.6,N
1586374015.4,286047000.0,N
1586374035.2,286047000.3,N
1586374055.1,286047002.4,N
1586374056.0,286047002.4,N
1586374075.8,286047002.3,N
1586374095.7,286047002.4,N
1586374115.5,286047001.0,N
1586374135.3,286047000.3,N
1586374155.2,286046998.3,N
1586374175.0,286047000.2,N
1586374175.9,286047000.2,N
1586374195.8,286047002.3,N
1586374215.6,286047002.2,N
1586374235.4,286047000.6,N
1586374255.3,286047000.8,N
1586374275.1,286046996.6,N
1586374295.9,286046999.6,N
1586374315.7,286046998.6,N
1586374335.5,286047002.5,N
1586374355.4,286047000.2,N
1586374375.2,286047002.1,N
1586374395.1,286046999.9,N
1586374426.0,286047000.1,E
1586374435.0,286047003.9,N
1586374435.9,286047003.9,P
1586374455.7,286047004.0,P
1586374475.6,286047004.1,Y
1586374495.4,286046996.7,P
1586374515.3,286047001.0,N
1586374535.1,286046999.8,N
1586374555.8,286046999.7,N
1586374575.7,286047001.1,N
1586374595.5,286046998.5,N
1586374615.4,286046996.9,N
1586374635.2,286046995.3,N
1586374655.0,286046996.4,N
1586374655.9,286046996.4,N
1586374675.8,286046995.4,N
1586374695.6,286046997.9,N
1586374715.5,286046996.4,N
1586374735.3,286046994.7,N
1586374755.1,286046992.6,N
1586374775.9,286046994.2,N
1586374795.7,286046995.6,N
1586374815.5,286046993.7,N
1586374835.4,286046994.0,N
1586374855.2,286046994.2,N
1586374875.1,286046992.2,N
1586374876.0,286046992.2,N
1586374895.8,286046994.4,N
1586374915.6,286046994.7,N
1586374935.5,286046994.0,N
1586374955.3,286046994.0,N
1586374975.2,286046993.2,N
1586374995.9,286046992.7,N
1586375015.7,286046990.9,Y
1586375035.6,286046995.7,P
1586375055.4,286046993.6,P
1586375075.2,286046991.7,P
1586375095.1,286046993.8,Y
1586375096.0,286046993.8,P
1586375115.8,286046998.7,P
1586375135.7,286046998.3,N
1586375155.5,286046999.0,N
1586375175.3,286046999.0,N
1586375195.2,286046998.1,N
1586375215.0,286046998.7,N
1586375215.9,286046998.7,N
1586375235.8,286046998.8,N
1586375255.6,286046996.7,N
1586375275.4,286046998.7,N
1586375295.3,286046997.0,N
1586375315.1,286046997.8,N
1586375335.9,286046995.4,N
1586375355.7,286046993.3,Y
1586375375.5,286046997.6,P
1586375395.4,286046995.4,P
1586375415.2,286046995.4,P
1586375435.0,286046997.2,N
1586375435.9,286046997.2,N
1586375455.8,286046999.0,N
1586375475.6,286046997.8,N
1586375495.5,286046996.2,Y
1586375515.3,286047001.2,P
1586375535.1,286046998.5,N
1586375555.9,286046996.6,N
1586375575.7,286046999.2,N
1586375595.5,286046997.5,N
1586375615.4,286046994.9,Y
1586375635.2,286046998.8,P
1586375655.1,286046997.3,P
1586375656.0,286046997.3,P
1586375675.8,286046997.4,Y
1586375695.6,286046998.6,P
1586375715.5,286046998.3,P
1586375735.3,286046999.9,N
1586375755.2,286047000.4,N
1586375775.9,286047002.2,N
1586375795.7,286047001.0,N
1586375815.6,286046998.5,N
1586375835.4,286046998.7,N
1586375855.2,286046998.5,N
1586375875.1,286046998.4,N
1586375876.0,286046998.4,N
1586375895.8,286046999.4,N
1586375915.7,286046996.7,N
1586375935.5,286046999.3,N
1586375955.3,286046999.2,N
1586375975.2,286046999.2,N
1586375995.0,286046999.5,N
1586375995.9,286046999.5,N
